Tracking 31027 objects as of 19-Jul-2025
HD Live streaming from Space Station
objects crossing your sky now

STARLINK-31431

Track STARLINK-31431 now!
10-day predictions
STARLINK-31431 is classified as:


NORAD ID: 59002
Int'l Code: 2024-036E
Perigee: 481.6 km
Apogee: 483.1 km
Inclination: 53.2 °
Period: 94.1 minutes
Semi major axis: 6853 km
RCS: Unknown
Launch date: February 23, 2024
Source: United States (US)
Launch site: AIR FORCE WESTERN TEST RANGE (AFWTR)
Your satellite tracking list
STARLINK-31611
Track 1 satellite(s)




NASA's NSSDC Master Catalog

Two Line Element Set (TLE):
1 59002U 24036E   25198.12201999 -.00000837  00000-0 -16135-4 0  9999
2 59002  53.1601  92.5423 0001149  85.9800 274.1332 15.30204036 79275
Source of the keplerian elements: AFSPC